[[{"header":{"parameterUnit":"m.s-1","parameterCategory":1,"la1":30.2991,"la2":30.254,"lo1":-89.0895,"lo2":-89.0444,"dy":0.0017,"dx":0.0017,"nx":28,"ny":28,"refTime":"2024-05-14T21:00:00:Z","depth":0,"parameterNumber":2,"parameterNumberName":"U-component_of_WINDS"},"data":[0,0,0,0,0,0,0,0,0,0,0,0,0,0,0,0,0,0,0,0,0,0,0,0,0,0,0,0,0,0,0,0,0,0,0,0,0,0,0,0,0,0,0,0,0,0,0,0,0,0,0,0,0,0,0,0,0,0,-1.9698,-1.9698,0,-1.9708,-1.9708,-1.9708,-1.9694,-1.9694,-1.9693,-1.9693,-1.9701,-1.9701,-1.9702,0,0,0,0,0,0,0,0,0,0,0,0,0,-1.9665,-1.9666,-1.9698,-1.9698,-1.9699,-1.9708,-1.9708,-1.9708,-1.9694,-1.9694,-1.9693,-1.9693,-1.97,-1.9701,-1.9702,0,0,0,0,0,0,0,0,0,0,0,0,0,-1.9677,-1.9666,-1.9698,-1.9693,-1.9693,-1.9708,-1.9708,-1.9708,-1.9694,-1.9694,-1.9693,-1.9692,-1.97,-1.9701,-1.9702,-1.9722,0,0,-1.9705,-1.9706,0,0,0,0,0,0,0,0,-1.9677,-1.9679,-1.9694,-1.9693,-1.9693,-1.9699,-1.9699,-1.9713,-1.9695,-1.9694,-1.9693,-1.9692,-1.9701,-1.9702,-1.9705,-1.9723,-1.9723,-1.9705,-1.9706,-1.9706,-1.9707,0,0,0,0,0,0,0,-1.9676,-1.9678,-1.9702,-1.9694,-1.9693,-1.9689,-1.969,-1.9701,-1.9701,-1.9694,-1.9693,-1.9694,-1.97,-1.9704,-1.9705,-1.9723,-1.9705,-1.9706,-1.9707,-1.9707,-1.9755,-1.9755,0,0,0,0,0,0,-1.9676,-1.9677,-1.9702,-1.9702,-1.9683,-1.969,-1.9691,-1.9698,-1.9701,-1.9701,-1.9695,-1.9693,-1.9703,-1.9704,-1.9705,-1.9727,-1.9706,-1.9707,-1.9708,-1.9754,-1.9755,-1.9756,0,0,0,0,0,0,-1.9675,-1.9678,-1.9701,-1.969,-1.9692,-1.9691,-1.9699,-1.9698,-1.9702,-1.9702,-1.9701,-1.9699,-1.9702,-1.9704,-1.9718,-1.9727,-1.9708,-1.9708,-1.9753,-1.9754,-1.9755,-1.9772,0,0,0,0,0,0,-1.9674,-1.9678,-1.9687,-1.969,-1.9693,-1.9715,-1.97,-1.9699,-1.9704,-1.9702,-1.9705,-1.9705,-1.9702,-1.9716,-1.9719,-1.9728,-1.9709,-1.9752,-1.9754,-1.9755,-1.977,-1.9773,-1.9776,0,0,0,0,0,-1.9673,-1.9692,-1.9688,-1.9691,-1.9704,-1.9715,-1.9717,-1.9713,-1.9705,-1.9713,-1.9712,-1.9705,-1.9726,-1.9718,-1.972,-1.973,-1.9752,-1.9753,-1.9755,-1.9769,-1.9773,-1.9776,0,0,0,0,0,0,-1.969,-1.9692,-1.9687,-1.9708,-1.9711,-1.9713,-1.9723,-1.9718,-1.9724,-1.9722,-1.9716,-1.9717,-1.9731,-1.9732,-1.9723,-1.9748,-1.9737,-1.9739,-1.9747,-1.975,-1.9753,-1.9752,-1.971,0,0,0,0,0,-1.9696,-1.9706,-1.9707,-1.9724,-1.9726,-1.9724,-1.9729,-1.9726,-1.973,-1.9731,-1.9731,-1.9734,-1.9741,-1.9746,-1.9753,-1.977,-1.9769,-1.9778,-1.9781,-1.9783,-1.9784,-1.9791,-1.9794,-1.9761,-1.9761,-1.9761,0,0,-1.9708,-1.9711,-1.9718,-1.9728,-1.973,-1.9739,-1.9726,-1.9737,-1.9743,-1.9732,-1.9745,-1.9745,-1.9748,-1.9763,-1.977,-1.9764,-1.9793,-1.9785,-1.9787,-1.9787,-1.9793,-1.9796,-1.9799,-1.9762,-1.9761,-1.9761,0,0,-1.9735,-1.9739,-1.9753,-1.9755,-1.9759,-1.9757,-1.976,-1.9762,-1.9762,-1.9775,-1.9766,-1.9773,-1.9786,-1.9787,-1.9789,-1.9814,-1.9807,-1.9816,-1.983,-1.9836,-1.9839,-1.9841,-1.9848,-1.9851,-1.9818,-1.9818,-1.9818,0,-1.975,-1.9765,-1.976,-1.9771,-1.9774,-1.9765,-1.9777,-1.978,-1.9786,-1.9788,-1.9781,-1.9795,-1.9797,-1.9811,-1.9816,-1.9819,-1.9821,-1.9816,-1.9839,-1.9841,-1.9843,-1.985,-1.9852,-1.9819,-1.9819,-1.9819,-1.9819,0,-1.9781,-1.9791,-1.9801,-1.9806,-1.9811,-1.9823,-1.9819,-1.9824,-1.9819,-1.9817,-1.9829,-1.983,-1.9835,-1.9838,-1.9835,-1.9851,-1.9847,-1.984,-1.9829,-1.9848,-1.9853,-1.9856,-1.982,-1.982,-1.982,-1.9819,0,0,-1.982,-1.9821,-1.9825,-1.9826,-1.9828,-1.9835,-1.9845,-1.985,-1.9853,-1.9857,-1.9864,-1.9874,-1.9866,-1.9869,-1.9865,-1.9871,-1.9887,-1.9863,-1.9862,-1.9866,-1.9903,-1.9907,-1.991,-1.9882,-1.9883,-1.9883,-1.9902,0,-1.9845,-1.9863,-1.9858,-1.9875,-1.9882,-1.9873,-1.9881,-1.9882,-1.988,-1.9885,-1.9883,-1.9889,-1.988,-1.9881,-1.9887,-1.9884,-1.9894,-1.9883,-1.9887,-1.9887,-1.9886,-1.9913,-1.9919,-1.9936,-1.9904,-1.9905,-1.9905,0,-1.9877,-1.9881,-1.9899,-1.9898,-1.99,-1.9908,-1.9911,-1.9917,-1.9917,-1.9915,-1.9917,-1.9911,-1.9918,-1.9907,-1.9917,-1.9909,-1.991,-1.9909,-1.9909,-1.9909,-1.9897,-1.9912,-1.9942,-1.9944,-1.9909,-1.9908,-1.9908,0,-1.9901,-1.9911,-1.9922,-1.9924,-1.9923,-1.9928,-1.9928,-1.9928,-1.993,-1.9932,-1.9933,-1.9937,-1.9938,-1.994,-1.9934,-1.9927,-1.9943,-1.9932,-1.994,-1.994,-1.9944,-1.9943,-1.9972,-1.9947,-1.9947,-1.9947,-1.9946,0,-1.9929,-1.994,-1.9932,-1.9939,-1.995,-1.9944,-1.9954,-1.9953,-1.9952,-1.9957,-1.9949,-1.9953,-1.9946,-1.9949,-1.9945,-1.9952,-1.9953,-1.995,-1.9949,-1.995,-1.995,-1.9951,-1.9949,-1.9947,-1.9947,-1.9947,-1.9947,0,-1.9957,-1.9953,-1.9964,-1.9962,-1.9961,-1.9969,-1.9967,-1.9972,-1.9969,-1.9975,-1.9976,-1.9971,-1.9974,-1.9969,-1.9972,-1.9968,-1.9978,-1.9975,-1.9977,-1.9976,-1.9984,-1.9982,-2.0013,-2.0016,-1.9989,-1.999,-1.999,0,-1.9975,-1.9982,-1.9981,-1.9983,-1.9983,-1.9988,-1.999,-1.9984,-1.9986,-1.9986,-1.999,-1.9993,-1.9995,-2.0,-1.9996,-1.9997,-1.9994,-2.0004,-1.9994,-1.9994,-1.9992,-1.9991,-1.9991,-2.0006,-2.0006,-2.0007,-2.0007,0,-2.0005,-2.0002,-2.0006,-2.0008,-2.0011,-2.0012,-2.0013,-2.0016,-2.0008,-2.0011,-2.0014,-2.0015,-2.0018,-2.002,-2.002,-2.0018,-2.001,-2.001,-2.0012,-2.0013,-2.0014,-2.0012,-1.9982,-2.0009,-2.0009,-2.0009,-2.0009,-2.0009,-2.0027,-2.0033,-2.0032,-2.0035,-2.0035,-2.0035,-2.0039,-2.0036,-2.0039,-2.004,-2.0036,-2.0039,-2.0037,-2.0037,-2.0035,-2.0037,-2.0032,-2.0035,-2.0036,-2.0036,-2.0037,-2.0014,-2.0037,-2.0037,-2.0037,-2.0037,-2.0037,0,-2.0056,-2.0054,-2.0058,-2.0058,-2.0061,-2.0054,-2.0053,-2.0055,-2.0059,-2.0058,-2.0059,-2.0062,-2.0063,-2.0058,-2.0058,-2.0061,-2.0057,-2.0061,-2.006,-2.0059,-2.0042,-2.004,-2.0063,-2.0063,-2.0063,-2.0063,-2.0063,-2.0063,-2.0071,-2.0079,-2.0075,-2.0082,-2.008,-2.0084,-2.0084,-2.0084,-2.0082,-2.0085,-2.0086,-2.0083,-2.008,-2.008,-2.008,-2.0078,-2.0078,-2.0083,-2.008,-2.0063,-2.0061,-2.0058,-2.0056,-2.0083,-2.0083,-2.0097,-2.0097,-2.0097]},{"header":{"parameterUnit":"m.s-1","parameterCategory":1,"la1":30.2991,"la2":30.254,"lo1":-89.0895,"lo2":-89.0444,"dy":0.0017,"dx":0.0017,"nx":28,"ny":28,"refTime":"2024-05-14T21:00:00:Z","depth":0,"parameterNumber":3,"parameterNumberName":"V-component_of_WINDS"},"data":[0,0,0,0,0,0,0,0,0,0,0,0,0,0,0,0,0,0,0,0,0,0,0,0,0,0,0,0,0,0,0,0,0,0,0,0,0,0,0,0,0,0,0,0,0,0,0,0,0,0,0,0,0,0,0,0,0,0,1.2145,1.2144,0,1.2079,1.2078,1.2077,1.1979,1.1977,1.1976,1.1974,1.1907,1.1907,1.1907,0,0,0,0,0,0,0,0,0,0,0,0,0,1.2188,1.2188,1.2145,1.2144,1.2143,1.2079,1.2078,1.2077,1.1979,1.1977,1.1975,1.1973,1.1907,1.1907,1.1907,0,0,0,0,0,0,0,0,0,0,0,0,0,1.215,1.2188,1.2145,1.2087,1.2081,1.2079,1.2078,1.2077,1.198,1.1977,1.1975,1.1972,1.1907,1.1907,1.1907,1.1956,0,0,1.1906,1.1906,0,0,0,0,0,0,0,0,1.2153,1.2149,1.2096,1.2091,1.2084,1.2034,1.2068,1.2036,1.198,1.2018,1.1974,1.1971,1.1952,1.1947,1.1941,1.1953,1.195,1.1906,1.1905,1.1905,1.1905,0,0,0,0,0,0,0,1.2155,1.2151,1.2119,1.2096,1.2088,1.2064,1.2056,1.2062,1.2,1.2015,1.2007,1.2001,1.1948,1.1941,1.1938,1.1949,1.1906,1.1905,1.1905,1.1905,1.2001,1.2003,0,0,0,0,0,0,1.2166,1.2154,1.2121,1.2117,1.2113,1.2066,1.2056,1.2053,1.2,1.1989,1.2003,1.1997,1.1943,1.1939,1.1936,1.1991,1.1905,1.1905,1.1905,1.1998,1.2001,1.2004,0,0,0,0,0,0,1.2168,1.2164,1.2123,1.2133,1.2126,1.2068,1.2065,1.2053,1.2046,1.1991,1.198,1.2008,1.1941,1.1936,1.1952,1.1988,1.1905,1.1905,1.1995,1.1999,1.2003,1.2103,0,0,0,0,0,0,1.2169,1.2165,1.2184,1.2134,1.2126,1.2141,1.2067,1.2054,1.2046,1.2037,1.1992,1.1983,1.1938,1.1953,1.1952,1.1986,1.1905,1.1992,1.1997,1.2002,1.2096,1.211,1.2122,0,0,0,0,0,1.2171,1.2214,1.2185,1.2181,1.2147,1.2143,1.2139,1.2087,1.2049,1.2067,1.2032,1.1984,1.1984,1.1956,1.1953,1.1988,1.1989,1.1995,1.2001,1.2091,1.2108,1.2122,0,0,0,0,0,0,1.2269,1.2207,1.2174,1.2202,1.2179,1.2127,1.2148,1.2106,1.2093,1.2085,1.2021,1.2012,1.2036,1.2013,1.1983,1.2034,1.1979,1.1985,1.2048,1.2064,1.2076,1.2081,1.1904,0,0,0,0,0,1.2294,1.2296,1.2241,1.2271,1.2261,1.2207,1.2203,1.2165,1.2139,1.2128,1.2094,1.207,1.2065,1.2063,1.2055,1.2092,1.2082,1.2115,1.2128,1.2139,1.2145,1.2164,1.2179,1.2024,1.2024,1.2024,0,0,1.2345,1.2312,1.2316,1.229,1.2268,1.2271,1.2199,1.2206,1.2208,1.2129,1.2143,1.2117,1.2086,1.2114,1.2124,1.2096,1.2185,1.2146,1.2155,1.2155,1.2172,1.2187,1.22,1.2029,1.2028,1.2027,0,0,1.2441,1.2415,1.2438,1.2417,1.2384,1.2348,1.2354,1.2308,1.2288,1.23,1.2242,1.2244,1.2235,1.2216,1.2206,1.2295,1.2251,1.2294,1.2361,1.2381,1.2393,1.2404,1.2437,1.2449,1.2301,1.2301,1.2301,0,1.2509,1.2512,1.2455,1.2466,1.2457,1.2385,1.2409,1.2391,1.2358,1.2353,1.2321,1.231,1.2284,1.2307,1.2329,1.2322,1.2328,1.2299,1.2396,1.2406,1.2415,1.2446,1.2458,1.2306,1.2306,1.2305,1.2305,0,1.2598,1.2601,1.2624,1.2593,1.2586,1.2603,1.2549,1.2549,1.2512,1.248,1.2494,1.246,1.2445,1.2447,1.2411,1.2465,1.2449,1.2407,1.2351,1.2436,1.2464,1.2475,1.2314,1.2312,1.2311,1.2309,0,0,1.2754,1.2692,1.2701,1.2687,1.2646,1.2647,1.2661,1.2646,1.2647,1.2627,1.2638,1.2633,1.2594,1.2582,1.2543,1.2561,1.2635,1.2517,1.2515,1.2541,1.2694,1.2727,1.2741,1.2606,1.2607,1.2609,1.2697,0,1.2842,1.2862,1.2812,1.2845,1.2848,1.278,1.2793,1.2769,1.2739,1.2737,1.2704,1.2702,1.2651,1.2644,1.2658,1.2623,1.2665,1.2616,1.2616,1.2617,1.2627,1.2755,1.2789,1.2874,1.2708,1.271,1.2711,0,1.2947,1.2933,1.2966,1.2924,1.2923,1.2935,1.2917,1.2916,1.2888,1.2865,1.2853,1.2807,1.2819,1.2765,1.278,1.2748,1.2745,1.2728,1.273,1.2729,1.267,1.2759,1.29,1.2913,1.2727,1.2726,1.2725,0,1.3059,1.3047,1.3066,1.3055,1.3006,1.3017,1.2997,1.2966,1.296,1.2945,1.2941,1.2928,1.2921,1.2912,1.2864,1.2829,1.2886,1.2827,1.2868,1.2869,1.2883,1.2883,1.3027,1.288,1.288,1.288,1.288,0,1.3163,1.3187,1.3115,1.3127,1.3152,1.3094,1.312,1.3093,1.3067,1.3073,1.3014,1.302,1.2957,1.2957,1.292,1.2939,1.2936,1.2918,1.2908,1.2924,1.2927,1.2922,1.2915,1.2883,1.2882,1.2882,1.2881,0,1.3292,1.3245,1.3261,1.3214,1.3202,1.3223,1.3182,1.3191,1.3157,1.3166,1.3164,1.3112,1.3109,1.306,1.3047,1.3022,1.3056,1.3035,1.3066,1.306,1.3103,1.31,1.325,1.3267,1.3109,1.311,1.3111,0,1.3362,1.3379,1.3333,1.3333,1.3315,1.3315,1.331,1.3254,1.325,1.322,1.3233,1.3226,1.3217,1.3215,1.3176,1.3166,1.3144,1.3197,1.3142,1.3158,1.3146,1.3146,1.3148,1.3209,1.3211,1.3213,1.3214,0,1.3492,1.3468,1.3462,1.3448,1.3443,1.3429,1.3412,1.3415,1.3353,1.3353,1.3349,1.3342,1.3329,1.3322,1.3305,1.3284,1.324,1.3232,1.3241,1.3258,1.3276,1.3268,1.3099,1.3229,1.3227,1.3226,1.3226,1.3225,1.3594,1.3606,1.3576,1.3571,1.3552,1.3538,1.3544,1.3512,1.3508,1.3492,1.346,1.3462,1.3434,1.3406,1.339,1.3391,1.3364,1.3377,1.338,1.3385,1.3394,1.3275,1.3388,1.3387,1.3387,1.3386,1.3386,0,1.3722,1.3699,1.3695,1.3673,1.367,1.3628,1.3606,1.3607,1.3609,1.3587,1.3579,1.3576,1.357,1.353,1.352,1.3528,1.3508,1.3527,1.3527,1.3523,1.3418,1.3412,1.3544,1.3544,1.3544,1.3544,1.3544,1.3544,1.3788,1.3806,1.3779,1.3788,1.3765,1.3766,1.3758,1.3745,1.3727,1.3726,1.372,1.3694,1.3666,1.3653,1.3645,1.3634,1.3633,1.3661,1.3643,1.3546,1.353,1.3516,1.351,1.3661,1.3661,1.3748,1.3748,1.3749]}]]